Total_Precipitation_Accumulation
0.31 0.40 0.41 0.38 0.39 0.40 0.44 0.53 0.58 0.49 0.49 0.56 0.60 0.66 0.74 0.67 0.61 0.49 0.33 0.27 0.21 0.17 0.16 0.16 0.16 0.20 0.27 0.30 0.34 0.38 0.43 0.49 0.57 0.74 0.96 1.16 1.34 1.47
0.38 0.44 0.50 0.50 0.51 0.50 0.51 0.58 0.70 0.67 0.62 0.62 0.64 0.64 0.61 0.43 0.38 0.33 0.25 0.21 0.15 0.13 0.12 0.13 0.13 0.15 0.18 0.20 0.23 0.27 0.31 0.32 0.35 0.39 0.45 0.56 0.73 0.98
0.37 0.42 0.46 0.54 0.61 0.62 0.67 0.68 0.70 0.80 0.74 0.63 0.72 0.78 0.64 0.42 0.28 0.23 0.18 0.13 0.10 0.11 0.11 0.11 0.11 0.12 0.13 0.14 0.18 0.21 0.23 0.25 0.26 0.27 0.29 0.30 0.31 0.36
0.34 0.44 0.48 0.49 0.55 0.63 0.75 0.78 0.79 0.90 0.88 0.73 0.79 0.85 0.72 0.56 0.37 0.25 0.14 0.09 0.08 0.09 0.11 0.12 0.12 0.11 0.10 0.09 0.10 0.11 0.13 0.15 0.17 0.17 0.17 0.18 0.19 0.20
0.31 0.39 0.47 0.55 0.58 0.62 0.72 0.77 0.83 0.98 1.01 0.91 0.89 0.96 0.95 0.71 0.46 0.26 0.14 0.08 0.06 0.07 0.09 0.10 0.11 0.10 0.09 0.08 0.07 0.05 0.05 0.07 0.08 0.09 0.10 0.12 0.14 0.15
0.33 0.36 0.41 0.52 0.60 0.64 0.72 0.84 0.93 1.01 1.08 1.05 1.07 1.14 1.09 0.92 0.64 0.36 0.22 0.12 0.07 0.05 0.06 0.07 0.08 0.08 0.08 0.07 0.06 0.04 0.03 0.04 0.05 0.06 0.05 0.05 0.06 0.07
0.23 0.30 0.32 0.37 0.47 0.58 0.67 0.77 0.93 1.08 1.23 1.28 1.27 1.40 1.30 1.05 0.77 0.46 0.29 0.18 0.11 0.07 0.05 0.05 0.05 0.04 0.04 0.05 0.05 0.04 0.03 0.02 0.02 0.03 0.03 0.03 0.03 0.03
0.20 0.26 0.26 0.27 0.31 0.37 0.48 0.62 0.77 0.92 1.12 1.29 1.39 1.47 1.48 1.25 0.99 0.70 0.38 0.18 0.15 0.14 0.09 0.08 0.05 0.03 0.02 0.02 0.04 0.03 0.02 0.02 0.01 0.01 0.01 0.02 0.02 0.02
0.21 0.23 0.19 0.17 0.24 0.27 0.32 0.40 0.51 0.63 0.78 0.98 1.14 1.22 1.38 1.40 1.14 0.83 0.51 0.28 0.15 0.12 0.10 0.09 0.06 0.03 0.02 0.02 0.03 0.02 0.02 0.01 0.01 0.01 0.00 0.00 0.01 0.01
0.23 0.24 0.23 0.21 0.22 0.27 0.30 0.30 0.31 0.36 0.45 0.56 0.73 0.94 1.11 1.24 1.15 0.98 0.79 0.49 0.28 0.15 0.08 0.10 0.08 0.05 0.04 0.03 0.04 0.03 0.01 0.01 0.00 0.00 0.00 0.00 0.00 0.00
0.25 0.27 0.29 0.24 0.20 0.20 0.27 0.27 0.26 0.26 0.29 0.37 0.51 0.71 0.92 1.04 1.09 0.93 0.75 0.55 0.38 0.20 0.07 0.05 0.07 0.09 0.10 0.06 0.04 0.03 0.02 0.01 0.00 0.00 0.00 0.00 0.00 0.00
0.35 0.36 0.34 0.29 0.25 0.18 0.22 0.24 0.22 0.22 0.24 0.24 0.32 0.46 0.59 0.78 0.90 0.78 0.60 0.47 0.34 0.22 0.09 0.04 0.04 0.06 0.11 0.07 0.03 0.02 0.01 0.01 0.00 0.00 0.00 0.00 0.00 0.00
0.40 0.40 0.39 0.32 0.25 0.19 0.19 0.22 0.19 0.21 0.25 0.26 0.27 0.36 0.48 0.59 0.74 0.74 0.60 0.41 0.28 0.17 0.08 0.04 0.03 0.03 0.04 0.03 0.02 0.01 0.01 0.00 0.00 0.00 0.00 0.00 0.00 0.00
0.50 0.51 0.49 0.41 0.32 0.26 0.20 0.18 0.17 0.19 0.26 0.28 0.31 0.34 0.40 0.46 0.57 0.70 0.68 0.51 0.33 0.21 0.11 0.05 0.03 0.03 0.03 0.02 0.01 0.01 0.01 0.00 0.00 0.00 0.01 0.01 0.01 0.00
0.52 0.63 0.61 0.50 0.43 0.37 0.29 0.22 0.19 0.17 0.22 0.27 0.26 0.28 0.32 0.37 0.46 0.62 0.70 0.65 0.49 0.32 0.20 0.10 0.05 0.03 0.03 0.03 0.02 0.01 0.01 0.00 0.00 0.00 0.00 0.01 0.01 0.00
0.46 0.57 0.65 0.64 0.59 0.52 0.42 0.29 0.21 0.19 0.20 0.24 0.25 0.28 0.34 0.41 0.46 0.46 0.54 0.56 0.50 0.39 0.23 0.12 0.07 0.05 0.03 0.02 0.02 0.01 0.01 0.00 0.00 0.00 0.00 0.00 0.00 0.00
0.50 0.66 0.80 0.82 0.80 0.71 0.57 0.41 0.29 0.25 0.24 0.24 0.28 0.29 0.34 0.38 0.40 0.36 0.38 0.41 0.33 0.27 0.20 0.12 0.06 0.04 0.04 0.02 0.02 0.01 0.01 0.00 0.00 0.00 0.00 0.00 0.00 0.00
0.41 0.66 0.89 0.95 0.94 0.87 0.73 0.54 0.40 0.31 0.29 0.28 0.29 0.30 0.31 0.33 0.35 0.34 0.31 0.33 0.31 0.21 0.16 0.10 0.06 0.04 0.04 0.02 0.01 0.00 0.00 0.00 0.00 0.00 0.00 0.00 0.00 0.00
0.27 0.47 0.72 0.89 0.92 0.91 0.80 0.62 0.47 0.38 0.38 0.35 0.33 0.31 0.30 0.30 0.30 0.32 0.30 0.28 0.28 0.23 0.16 0.11 0.06 0.04 0.03 0.02 0.01 0.01 0.00 0.00 0.00 0.00 0.00 0.00 0.00 0.00
0.21 0.33 0.52 0.75 0.83 0.84 0.77 0.66 0.56 0.49 0.47 0.43 0.39 0.34 0.31 0.30 0.27 0.27 0.25 0.23 0.21 0.20 0.16 0.12 0.08 0.04 0.02 0.02 0.01 0.01 0.00 0.00 0.00 0.00 0.00 0.00 0.00 0.00
0.19 0.24 0.37 0.57 0.69 0.74 0.71 0.65 0.59 0.55 0.51 0.49 0.45 0.39 0.33 0.31 0.27 0.23 0.22 0.24 0.19 0.15 0.12 0.10 0.07 0.06 0.04 0.02 0.01 0.01 0.00 0.00 0.00 0.00 0.00 0.00 0.00 0.00
0.22 0.23 0.30 0.44 0.57 0.66 0.66 0.60 0.59 0.57 0.55 0.50 0.47 0.41 0.35 0.32 0.29 0.24 0.22 0.20 0.16 0.12 0.10 0.09 0.08 0.06 0.04 0.02 0.01 0.00 0.00 0.00 0.00 0.00 0.00 0.00 0.00 0.00
0.27 0.24 0.27 0.37 0.46 0.54 0.55 0.51 0.52 0.55 0.51 0.48 0.44 0.41 0.36 0.32 0.30 0.27 0.22 0.18 0.15 0.12 0.12 0.11 0.09 0.06 0.04 0.02 0.01 0.01 0.01 0.00 0.00 0.00 0.00 0.00 0.00 0.00